Location: Petruro
(41.0333°N, 14.7833°E)
Time: 13:46:04
(UTC+00:00)

DELTA 2 R/B (1) - Pass Details

Date: 02 November 2021
Orbit: 791 x 802 km, 39.6° (Epoch: 04 December)

Event Time Altitude Azimuth Distance (km) Brightness Sun altitude
Rises 16:56:08 0° 248° (WSW) 3,298 8.6 -11.9°
Reaches altitude 10° 16:58:38 10° 245° (WSW) 2,368 7.4 -12.4°
Maximum altitude 17:04:09 62° 166° (SSE) 893 3.8 -13.4°
Enters shadow 17:07:56 20° 90° (E) 1,753 4.7 -14.1°
